User: anonymous   Login
Location: Unspecified
(0.0000°N, 0.0000°E)
Time: 12:57:15
(UTC+02:00)
Language:

ARIANE 5 R/B - Orbit

View from above orbital plane
View from above orbital plane
View from above satellite
View from above satellite

Ground track
Ground track

The orbit data is extracted from the following two-line orbital elements,

1 27387U 02009B   15114.52858575  .00000238  00000-0  96332-4 0  9995
2 27387 098.3599 071.9786 0031685 320.7993 150.2992 14.35831585688942
Epoch (UTC): 24 April 2015 12:41:09
Eccentricity: 0.0031685
inclination: 98.3599°
perigee height: 749 km
apogee height: 795 km
right ascension of ascending node: 71.9786°
argument of perigee: 320.7993°
revolutions per day: 14.35831585
mean anomaly at epoch: 150.2992°
orbit number at epoch: 68894

The dashed part of the orbit path shows where the satellite is in the earth's shadow,  

DLR